Location: Mount Cross
(36.6390°N, 79.4878°W)
Time: 00:57:08
(UTC+00:00)

SR - Pass Details

Date: 04 April 2023
Orbit: 580 x 867 km, 66.7° (Epoch: 08 June)

Event Time Altitude Azimuth Distance (km) Brightness Sun altitude
Rises 15:01:40 0° 319° (NW) 2,856 ? 45.7°
Reaches altitude 10° 15:04:08 10° 306° (NW) 1,979 ? 46.1°
Maximum altitude 15:07:50 26° 249° (WSW) 1,253 ? 46.7°
Drops below altitude 10° 15:11:44 10° 193° (SSW) 2,094 ? 47.3°
Sets 15:14:26 0° 181° (S) 3,058 ? 47.7°
